Barksdale AFB, LA

10:17 AM CDT on July 28, 2017 (GMT -0500)
Barksdale Air Force Base

Weather History for KBAD - October, 2013

Change the Weather History Date:

Sunday, October 27, 2013

  Actual Average Record
Temperature  
Mean Temperature 64 °F -  
Max Temperature 71 °F 72 °F 89 °F (2010)
Min Temperature 57 °F 52 °F 37 °F (1997)
Degree Days  
Heating Degree Days 1    
Growing Degree Days 14 (Base 50)    
Moisture  
Dew Point 57 °F    
Average Humidity 85    
Maximum Humidity 100    
Minimum Humidity 62    
Precipitation  
Precipitation 0.01 in - - ()
Sea Level Pressure  
Sea Level Pressure 30.07 in    
Wind  
Wind Speed 5 mph (NNW)    
Max Wind Speed 10 mph    
Max Gust Speed -    
Visibility 10 miles    
Events Rain    
Averages and records for this station are not official NWS values.
T = Trace of Precipitation, MM = Missing Value Source: NWS Daily Summary

Daily Weather History Graph

Daily Weather History Graph

Search for Another Location

Airport or City:

Trip Planner

Search our weather history database for the weather conditions in past years. The results will help you decide how hot, cold, wet, or windy it might be!

Date:

Astronomy

Oct. 27, 2013 Rise Set
Actual Time 7:28 AM CDT 6:28 PM CDT
Civil Twilight 7:02 AM CDT 6:53 PM CDT
Nautical Twilight 6:33 AM CDT 7:22 PM CDT
Astronomical Twilight 6:05 AM CDT 7:51 PM CDT
Moon 12:48 AM CDT (10/27) 2:17 PM CDT (10/27)
Length of Visible Light 11h 50m
Length of Day
11h 00m
Last Quarter, 43% of the Moon is Illuminated
Oct 27
Last Quarter
Nov 3
New
Nov 9
First Quarter
Nov 17
Full
Nov 25
Last Quarter

Hourly Weather History & Observations

Time (CDT) Temp. Dew Point Humidity Pressure Visibility Wind Dir Wind Speed Gust Speed Precip Events Conditions
12:34 AM 60.8 °F 53.6 °F 77% 30.13 in 10.0 mi WNW 8.1 mph - N/A Rain Light Rain
12:45 AM 60.8 °F 55.4 °F 82% 30.13 in 10.0 mi West 5.8 mph - N/A Rain Light Rain
12:55 AM 60.8 °F 55.4 °F 82% 30.12 in 10.0 mi WSW 3.5 mph - N/A   Mostly Cloudy
12:58 AM 61.5 °F 55.8 °F 81% 30.13 in 10.0 mi WSW 3.5 mph - 0.00 in   Mostly Cloudy
1:07 AM 60.8 °F 57.2 °F 88% 30.11 in 10.0 mi Calm Calm - N/A Rain Light Rain
1:58 AM 58.5 °F 55.9 °F 91% 30.09 in 10.0 mi NNE 2.3 mph - 0.01 in Rain Light Rain
2:01 AM 59.0 °F 55.4 °F 88% 30.08 in 10.0 mi NNW 3.5 mph - N/A   Scattered Clouds
2:58 AM 58.1 °F 56.7 °F 95% 30.00 in 10.0 mi SSE 9.2 mph - 0.00 in   Scattered Clouds
3:58 AM 60.4 °F 57.9 °F 91% 30.02 in 10.0 mi SSW 5.8 mph - N/A   Partly Cloudy
4:38 AM 60.8 °F 59.0 °F 94% 30.03 in 10.0 mi West 9.2 mph - N/A   Mostly Cloudy
4:58 AM 60.8 °F 59.0 °F 94% 30.04 in 10.0 mi West 8.1 mph - N/A   Scattered Clouds
5:02 AM 60.8 °F 59.0 °F 94% 30.03 in 10.0 mi West 6.9 mph - N/A   Mostly Cloudy
5:58 AM 60.1 °F 57.7 °F 92% 30.06 in 10.0 mi NW 5.8 mph - N/A   Mostly Cloudy
6:58 AM 59.7 °F 57.9 °F 94% 30.07 in 10.0 mi NNW 9.2 mph - N/A   Overcast
7:58 AM 59.9 °F 57.0 °F 90% 30.08 in 10.0 mi WNW 5.8 mph - N/A   Overcast
8:58 AM 60.3 °F 57.0 °F 89% 30.10 in 10.0 mi NW 9.2 mph - N/A   Overcast
9:18 AM 60.8 °F 57.2 °F 88% 30.11 in 10.0 mi WNW 8.1 mph - N/A   Overcast
9:58 AM 60.8 °F 57.2 °F 88% 30.12 in 10.0 mi NNW 9.2 mph - N/A   Overcast
10:58 AM 63.0 °F 57.4 °F 82% 30.13 in 10.0 mi NNW 10.4 mph - N/A   Overcast
11:58 AM 66.9 °F 57.6 °F 72% 30.12 in 10.0 mi NW 8.1 mph - N/A   Mostly Cloudy
12:58 PM 68.4 °F 57.2 °F 67% 30.10 in 10.0 mi North 6.9 mph - N/A   Scattered Clouds
1:28 PM 68.0 °F 57.2 °F 68% 30.08 in 10.0 mi NNW 6.9 mph - N/A   Mostly Cloudy
1:45 PM 68.0 °F 57.2 °F 68% 30.07 in 10.0 mi North 6.9 mph - N/A   Mostly Cloudy
1:58 PM 70.2 °F 56.5 °F 62% 30.07 in 10.0 mi NNW 4.6 mph - N/A   Scattered Clouds
2:58 PM 70.0 °F 57.6 °F 65% 30.05 in 10.0 mi NW 5.8 mph - N/A   Overcast
3:48 PM 69.8 °F 57.2 °F 64% 30.04 in 10.0 mi North 5.8 mph - N/A   Overcast
3:58 PM 69.1 °F 57.4 °F 66% 30.05 in 10.0 mi NNE 5.8 mph - N/A   Overcast
4:58 PM 68.4 °F 57.2 °F 67% 30.05 in 10.0 mi NNE 2.3 mph - N/A   Overcast
5:58 PM 67.1 °F 58.1 °F 73% 30.05 in 10.0 mi NE 3.5 mph - N/A   Overcast
6:58 PM 65.5 °F 58.3 °F 77% 30.05 in 10.0 mi ENE 2.3 mph - N/A   Overcast
7:58 PM 64.6 °F 58.6 °F 81% 30.05 in 10.0 mi ENE 2.3 mph - N/A   Overcast
8:58 PM 61.2 °F 58.5 °F 91% 30.06 in 10.0 mi Calm Calm - N/A   Clear
9:58 PM 59.4 °F 57.9 °F 95% 30.07 in 10.0 mi SE 2.3 mph - N/A   Clear
10:18 PM 59.0 °F 57.2 °F 94% 30.07 in 6.0 mi Calm Calm - N/A   Clear
10:28 PM 59.0 °F 59.0 °F 100% 30.06 in 10.0 mi ESE 2.3 mph - N/A   Clear
10:58 PM 59.4 °F 59.0 °F 99% 30.07 in 10.0 mi Calm Calm - N/A   Clear
11:08 PM 59.0 °F 59.0 °F 100% 30.06 in 7.0 mi Calm Calm - N/A   Clear
11:18 PM 59.0 °F 57.2 °F 94% 30.06 in 10.0 mi Calm Calm - N/A   Clear
11:28 PM 59.0 °F 59.0 °F 100% 30.06 in 4.0 mi Calm Calm - N/A   Clear
11:58 PM 57.2 °F 57.2 °F 100% 30.07 in 4.0 mi Calm Calm - N/A   Clear